NOAA 17 DEB, 48747

Orbit data source: Space-Track

NOAA 17 DEB, 48747 is space debris in SSO originally from a launch on Mon, 24 Jun 2002 UTC launched from the Air Force Western Test Range (AFWTR). Debris objects in space refer to the collection of defunct objects orbiting the Earth. Examples of debris include non-operational satellites, rocket bodies, and fragments generated from explosions, collisions, or faulty payload assembly.

Loading next visibility...
Identifier
48747, 2002-032CG
Orbit
SSO
Country
Flag of USUS
Related business
Manufacturer
Unknown
Mission
Spacecraft
Bus & Motor
Unknown
Mass
Unknown
Launch date (UTC)
2002-06-24 (23 years ago)
Launch vehicle
Unknown
Launch site
Air Force Western Test Range (AFWTR)
Object type
Payload
Rocket body
Debris
Shape & HBR
Unknown shape, 0.1 m
Radar Cross Section
Small (<0.1 m²)

Expand to show TLE details & history
Last TLE update: 2 days ago

TLE from 2 days ago
0 NOAA 17 DEB
1 48747U 02032CG  25348.55232439  .00025007  00000-0  32083-2 0  9994
2 48747  99.0263  82.6524 0024589 233.7735 126.1201 14.81007434249691
Epoch: 2025-12-14T13:15Z
TLE epoch observation values (Epoch: 2025-12-14T13:15:20.827Z)
Latitude
-0°
Longitude
160.35202°
Altitude
639.315 km
Speed
7.533 km/s
True Right ascension
05h 30m 36s
True Declination
0° 00' 00"
Sunlit
Object was in full shadow at epoch
Visualization orbit readout
Latitude
Unknown
Longitude
Unknown
Altitude
Unknown
Speed
Unknown
Apparent Right ascension
Unknown
Apparent Declination
Unknown
Sunlit
N/A
Visualization observer readout
Local Sidereal Time
00:26:46
Azimuth
Unknown
Elevation
Unknown
Doppler factor
Unknown
Orbital elements
Apogee altitude
640.455 km
Perigee altitude
606.024 km
Semi-major axis
7,001.376 km
Eccentricity
0.00246
Inclination
99.0263°
RAAN
82.6524°
Arg. of periapsis
233.7735°
True anomaly
126.3473°
Mean anomaly
126.1201°
Eccentric anomaly
126.23374°
Mean motion
3.70483 °/min
Orbital period
97.17 mins
BSTAR
0.0032083
Loading maneuver chart data...
Computing Atmospheric mass density...
Loading historical data...
Loading historical data...
Loading historical data...
Loading historical data...
Loading historical data...
Loading historical data...
Loading historical data...

Documentation

Showing up to 5 results
|